Time,TemperatureF,DewpointF,PressureIn,WindDirection,WindDirectionDegrees,WindSpeedMPH,WindSpeedGustMPH,Humidity,HourlyPrecipIn,Conditions,Clouds,dailyrainin,SoftwareType,DateUTC
2015-01-25 00:11:00,33.8,33.0,29.65,West,273,0.0,-999.0,97,-99.99,,,0.00,weatherlink.com 1.10,2015-01-25 05:11:00,
2015-01-25 00:26:00,33.7,33.0,29.65,West,274,0.0,-999.0,97,-99.99,,,0.00,weatherlink.com 1.10,2015-01-25 05:26:00,
2015-01-25 00:41:00,33.7,33.0,29.65,West,273,0.0,-999.0,97,-99.99,,,0.00,weatherlink.com 1.10,2015-01-25 05:41:00,
2015-01-25 00:56:00,33.8,33.0,29.65,West,274,0.0,-999.0,97,-99.99,,,0.00,weatherlink.com 1.10,2015-01-25 05:56:00,
2015-01-25 01:11:00,33.8,33.0,29.65,West,274,0.0,-999.0,97,-99.99,,,0.00,weatherlink.com 1.10,2015-01-25 06:11:00,
2015-01-25 01:26:00,33.7,33.0,29.65,West,274,0.0,-999.0,97,-99.99,,,0.01,weatherlink.com 1.10,2015-01-25 06:26:00,
2015-01-25 01:42:00,33.5,33.0,29.65,West,274,0.0,-999.0,97,-99.99,,,0.01,weatherlink.com 1.10,2015-01-25 06:42:00,
2015-01-25 01:57:00,33.5,33.0,29.66,West,274,0.0,-999.0,97,-99.99,,,0.01,weatherlink.com 1.10,2015-01-25 06:57:00,
2015-01-25 02:12:00,33.4,33.0,29.66,West,274,0.0,-999.0,97,-99.99,,,0.01,weatherlink.com 1.10,2015-01-25 07:12:00,
2015-01-25 02:27:00,33.4,33.0,29.67,West,273,0.0,-999.0,97,-99.99,,,0.01,weatherlink.com 1.10,2015-01-25 07:27:00,
2015-01-25 02:42:00,33.3,33.0,29.67,West,273,0.0,-999.0,97,-99.99,,,0.01,weatherlink.com 1.10,2015-01-25 07:42:00,
2015-01-25 02:57:00,33.3,33.0,29.67,West,273,0.0,-999.0,97,-99.99,,,0.01,weatherlink.com 1.10,2015-01-25 07:57:00,
2015-01-25 03:12:00,33.2,33.0,29.67,West,273,0.0,-999.0,97,-99.99,,,0.01,weatherlink.com 1.10,2015-01-25 08:12:00,
2015-01-25 03:27:00,33.1,32.0,29.67,West,274,0.0,-999.0,97,-99.99,,,0.01,weatherlink.com 1.10,2015-01-25 08:27:00,
2015-01-25 03:42:00,33.0,32.0,29.67,West,273,0.0,-999.0,97,-99.99,,,0.01,weatherlink.com 1.10,2015-01-25 08:42:00,
2015-01-25 03:57:00,32.9,32.0,29.67,West,274,0.0,-999.0,97,-99.99,,,0.01,weatherlink.com 1.10,2015-01-25 08:57:00,
2015-01-25 04:12:00,32.8,32.0,29.68,West,274,0.0,-999.0,97,-99.99,,,0.01,weatherlink.com 1.10,2015-01-25 09:12:00,
2015-01-25 04:27:00,32.7,32.0,29.69,West,274,0.0,-999.0,98,-99.99,,,0.01,weatherlink.com 1.10,2015-01-25 09:27:00,
2015-01-25 04:42:00,32.7,32.0,29.69,West,273,0.0,-999.0,98,-99.99,,,0.01,weatherlink.com 1.10,2015-01-25 09:42:00,
2015-01-25 04:57:00,32.7,32.0,29.69,West,273,0.0,-999.0,98,-99.99,,,0.01,weatherlink.com 1.10,2015-01-25 09:57:00,
2015-01-25 05:11:00,32.7,32.0,29.70,West,273,0.0,-999.0,98,-99.99,,,0.01,weatherlink.com 1.10,2015-01-25 10:11:00,
2015-01-25 05:26:00,32.7,32.0,29.70,West,274,0.0,-999.0,98,-99.99,,,0.01,weatherlink.com 1.10,2015-01-25 10:26:00,
2015-01-25 05:41:00,33.1,33.0,29.70,North,351,4.0,-999.0,98,-99.99,,,0.01,weatherlink.com 1.10,2015-01-25 10:41:00,
2015-01-25 05:56:00,32.6,32.0,29.70,NNE,26,1.0,-999.0,98,-99.99,,,0.01,weatherlink.com 1.10,2015-01-25 10:56:00,
2015-01-25 06:11:00,31.9,31.0,29.71,North,9,7.0,-999.0,97,-99.99,,,0.01,weatherlink.com 1.10,2015-01-25 11:11:00,
2015-01-25 06:26:00,31.4,31.0,29.73,NE,34,2.0,-999.0,97,-99.99,,,0.01,weatherlink.com 1.10,2015-01-25 11:26:00,
2015-01-25 06:41:00,31.2,31.0,29.73,NE,34,2.0,-999.0,97,-99.99,,,0.01,weatherlink.com 1.10,2015-01-25 11:41:00,
2015-01-25 06:57:00,31.0,30.0,29.74,NE,53,1.0,-999.0,96,-99.99,,,0.01,weatherlink.com 1.10,2015-01-25 11:57:00,
2015-01-25 07:12:00,30.8,30.0,29.75,NE,40,4.0,-999.0,96,-99.99,,,0.01,weatherlink.com 1.10,2015-01-25 12:12:00,
2015-01-25 07:27:00,30.8,30.0,29.75,NE,53,6.0,-999.0,95,-99.99,,,0.01,weatherlink.com 1.10,2015-01-25 12:27:00,
2015-01-25 07:42:00,30.6,29.0,29.75,NE,40,3.0,-999.0,95,-99.99,,,0.01,weatherlink.com 1.10,2015-01-25 12:42:00,
2015-01-25 07:57:00,30.4,29.0,29.76,ENE,58,5.0,-999.0,94,-99.99,,,0.01,weatherlink.com 1.10,2015-01-25 12:57:00,
2015-01-25 08:12:00,29.7,28.0,29.78,NE,47,7.0,-999.0,94,-99.99,,,0.01,weatherlink.com 1.10,2015-01-25 13:12:00,
2015-01-25 08:27:00,28.1,26.0,29.79,NNE,28,4.0,-999.0,92,-99.99,,,0.01,weatherlink.com 1.10,2015-01-25 13:27:00,
2015-01-25 08:42:00,27.6,25.0,29.80,ENE,75,8.0,-999.0,90,-99.99,,,0.01,weatherlink.com 1.10,2015-01-25 13:42:00,
2015-01-25 08:57:00,27.3,25.0,29.80,NNE,21,3.0,-999.0,89,-99.99,,,0.01,weatherlink.com 1.10,2015-01-25 13:57:00,
2015-01-25 09:12:00,27.1,24.0,29.81,East,83,8.0,-999.0,89,-99.99,,,0.01,weatherlink.com 1.10,2015-01-25 14:12:00,
2015-01-25 09:27:00,26.2,23.0,29.81,NE,56,6.0,-999.0,88,-99.99,,,0.01,weatherlink.com 1.10,2015-01-25 14:27:00,
2015-01-25 09:42:00,25.5,22.0,29.82,NE,51,10.0,-999.0,87,-99.99,,,0.01,weatherlink.com 1.10,2015-01-25 14:42:00,
2015-01-25 09:57:00,25.2,22.0,29.84,ENE,72,4.0,-999.0,87,-99.99,,,0.01,weatherlink.com 1.10,2015-01-25 14:57:00,
2015-01-25 10:12:00,25.0,22.0,29.84,NNE,32,5.0,-999.0,87,-99.99,,,0.01,weatherlink.com 1.10,2015-01-25 15:12:00,
2015-01-25 10:27:00,24.9,21.0,29.85,ENE,74,3.0,-999.0,85,-99.99,,,0.01,weatherlink.com 1.10,2015-01-25 15:27:00,
2015-01-25 10:42:00,25.0,21.0,29.85,ENE,69,7.0,-999.0,85,-99.99,,,0.01,weatherlink.com 1.10,2015-01-25 15:42:00,
2015-01-25 10:58:00,25.3,21.0,29.86,ENE,65,2.0,-999.0,84,-99.99,,,0.01,weatherlink.com 1.10,2015-01-25 15:58:00,
2015-01-25 11:12:00,24.9,21.0,29.86,ENE,64,4.0,-999.0,84,-99.99,,,0.01,weatherlink.com 1.10,2015-01-25 16:12:00,
2015-01-25 11:27:00,24.7,21.0,29.86,ENE,72,1.0,-999.0,84,-99.99,,,0.01,weatherlink.com 1.10,2015-01-25 16:27:00,
2015-01-25 11:42:00,24.8,21.0,29.87,East,82,8.0,-999.0,85,-99.99,,,0.01,weatherlink.com 1.10,2015-01-25 16:42:00,
2015-01-25 11:57:00,24.7,21.0,29.86,ENE,71,4.0,-999.0,84,-99.99,,,0.01,weatherlink.com 1.10,2015-01-25 16:57:00,
2015-01-25 12:12:00,25.1,21.0,29.85,ESE,114,5.0,-999.0,83,-99.99,,,0.01,weatherlink.com 1.10,2015-01-25 17:12:00,
2015-01-25 12:27:00,25.4,21.0,29.86,ENE,69,2.0,-999.0,82,-99.99,,,0.01,weatherlink.com 1.10,2015-01-25 17:27:00,
2015-01-25 12:42:00,25.7,21.0,29.85,ENE,74,7.0,-999.0,82,-99.99,,,0.01,weatherlink.com 1.10,2015-01-25 17:42:00,
2015-01-25 12:58:00,25.6,20.0,29.85,NE,48,3.0,-999.0,80,-99.99,,,0.01,weatherlink.com 1.10,2015-01-25 17:58:00,